START_TIME,STEP,MOV.,P11,t_acc.,P23,t_acc.,P27,t_acc.,A4,t_acc.
1979-07-03 03:00:23.950 ,1,0,0.,4.8,0.,4.8,0.,4.8,0.,4.8
1979-07-03 03:00:28.750 ,1,0,0.,4.8,0.,4.8,0.,4.8,0.,4.8
1979-07-03 03:00:33.550 ,1,0,0.,4.8,0.,4.8,0.,4.8,0.,4.8
1979-07-03 03:00:38.350 ,1,0,0.,4.8,0.,4.8,0.,4.8,0.,4.8
1979-07-03 03:00:43.150 ,1,0,1.,4.8,0.,4.8,0.,4.8,0.,4.8
1979-07-03 03:00:47.950 ,2,0,0.,4.8,0.,4.8,0.,4.8,0.,4.8
1979-07-03 03:00:52.750 ,2,0,0.,4.8,0.,4.8,0.,4.8,0.,4.8
1979-07-03 03:00:57.550 ,2,0,1.,4.8,0.,4.8,0.,4.8,0.,4.8
1979-07-03 03:01:02.350 ,2,0,0.,4.8,0.,4.8,0.,4.8,0.,4.8
1979-07-03 03:01:07.150 ,2,0,0.,4.8,0.,4.8,0.,4.8,0.,4.8
1979-07-03 03:01:11.950 ,2,0,1.,4.8,0.,4.8,0.,4.8,0.,4.8
1979-07-03 03:01:16.750 ,2,0,1.,4.8,1.,4.8,0.,4.8,0.,4.8
1979-07-03 03:01:21.550 ,2,0,0.,4.8,0.,4.8,1.,4.8,0.,4.8
1979-07-03 03:01:26.350 ,2,0,0.,4.8,0.,4.8,1.,4.8,0.,4.8
1979-07-03 03:01:31.150 ,2,0,1.,4.8,0.,4.8,0.,4.8,0.,4.8
1979-07-03 03:01:35.950 ,3,0,0.,4.8,0.,4.8,0.,4.8,0.,4.8
1979-07-03 03:01:40.750 ,3,0,0.,4.8,0.,4.8,0.,4.8,0.,4.8
1979-07-03 03:01:45.550 ,3,0,0.,4.8,0.,4.8,0.,4.8,0.,4.8
1979-07-03 03:01:50.350 ,3,0,0.,4.8,0.,4.8,0.,4.8,0.,4.8
1979-07-03 03:01:55.150 ,3,0,2.,4.8,0.,4.8,0.,4.8,0.,4.8
1979-07-03 03:01:59.950 ,3,0,0.,4.8,0.,4.8,0.,4.8,0.,4.8
1979-07-03 03:02:04.750 ,3,0,0.,4.8,0.,4.8,0.,4.8,0.,4.8
1979-07-03 03:02:09.550 ,3,0,0.,4.8,0.,4.8,0.,4.8,0.,4.8
1979-07-03 03:02:14.350 ,3,0,1.,4.8,0.,4.8,0.,4.8,0.,4.8
1979-07-03 03:02:19.150 ,3,0,0.,4.8,0.,4.8,0.,4.8,0.,4.8
1979-07-03 03:02:23.950 ,4,0,0.,4.8,0.,4.8,0.,4.8,0.,4.8
1979-07-03 03:02:28.750 ,4,0,3.,4.8,0.,4.8,0.,4.8,0.,4.8
1979-07-03 03:02:33.550 ,4,0,0.,4.8,0.,4.8,0.,4.8,0.,4.8
1979-07-03 03:02:38.350 ,4,0,0.,4.8,0.,4.8,0.,4.8,0.,4.8
1979-07-03 03:02:43.150 ,4,0,0.,4.8,0.,4.8,0.,4.8,0.,4.8
1979-07-03 03:02:47.950 ,4,0,0.,4.8,0.,4.8,0.,4.8,0.,4.8
1979-07-03 03:02:52.750 ,4,0,0.,4.8,0.,4.8,0.,4.8,0.,4.8
1979-07-03 03:02:57.550 ,4,0,2.,4.8,0.,4.8,0.,4.8,0.,4.8
1979-07-03 03:03:02.350 ,4,0,0.,4.8,0.,4.8,1.,4.8,0.,4.8
1979-07-03 03:03:07.150 ,4,0,1.,4.8,0.,4.8,0.,4.8,0.,4.8
1979-07-03 03:03:11.950 ,5,0,0.,4.8,0.,4.8,0.,4.8,0.,4.8
1979-07-03 03:03:16.750 ,5,0,0.,4.8,0.,4.8,0.,4.8,0.,4.8
1979-07-03 03:03:21.550 ,5,0,0.,4.8,0.,4.8,0.,4.8,0.,4.8
1979-07-03 03:03:26.350 ,5,0,1.,4.8,0.,4.8,0.,4.8,0.,4.8
1979-07-03 03:03:31.150 ,5,0,0.,4.8,0.,4.8,0.,4.8,0.,4.8
1979-07-03 03:03:35.950 ,5,0,2.,4.8,0.,4.8,0.,4.8,0.,4.8
1979-07-03 03:03:40.750 ,5,0,0.,4.8,0.,4.8,0.,4.8,0.,4.8
1979-07-03 03:03:45.550 ,5,0,1.,4.8,0.,4.8,1.,4.8,0.,4.8
1979-07-03 03:03:50.350 ,5,0,1.,4.8,0.,4.8,0.,4.8,0.,4.8
1979-07-03 03:03:55.150 ,5,0,0.,4.8,0.,4.8,0.,4.8,0.,4.8
1979-07-03 03:03:59.950 ,6,0,0.,4.8,0.,4.8,1.,4.8,0.,4.8
1979-07-03 03:04:04.750 ,6,0,1.,4.8,0.,4.8,0.,4.8,0.,4.8
1979-07-03 03:04:09.550 ,6,0,0.,4.8,0.,4.8,0.,4.8,0.,4.8
1979-07-03 03:04:14.350 ,6,0,1.,4.8,0.,4.8,1.,4.8,0.,4.8
1979-07-03 03:04:19.150 ,6,0,1.,4.8,0.,4.8,0.,4.8,1.,4.8
1979-07-03 03:04:23.950 ,6,0,0.,4.8,0.,4.8,0.,4.8,0.,4.8
1979-07-03 03:04:28.750 ,6,0,1.,4.8,0.,4.8,1.,4.8,0.,4.8
1979-07-03 03:04:33.550 ,6,0,1.,4.8,0.,4.8,0.,4.8,0.,4.8
1979-07-03 03:04:38.350 ,6,0,0.,4.8,0.,4.8,0.,4.8,1.,4.8
1979-07-03 03:04:43.150 ,6,0,0.,4.8,0.,4.8,0.,4.8,0.,4.8
1979-07-03 03:04:47.950 ,7,0,0.,4.8,0.,4.8,0.,4.8,0.,4.8
1979-07-03 03:04:52.750 ,7,0,0.,4.8,0.,4.8,0.,4.8,0.,4.8
1979-07-03 03:04:57.550 ,7,0,0.,4.8,0.,4.8,0.,4.8,0.,4.8
1979-07-03 03:05:02.350 ,7,0,0.,4.8,0.,4.8,0.,4.8,0.,4.8
1979-07-03 03:05:07.150 ,7,0,0.,4.8,0.,4.8,0.,4.8,0.,4.8
1979-07-03 03:05:11.950 ,7,0,0.,4.8,0.,4.8,0.,4.8,0.,4.8
1979-07-03 03:05:16.750 ,7,0,0.,4.8,0.,4.8,0.,4.8,0.,4.8
1979-07-03 03:05:21.550 ,7,0,0.,4.8,0.,4.8,0.,4.8,0.,4.8
1979-07-03 03:05:26.350 ,7,0,0.,4.8,0.,4.8,1.,4.8,0.,4.8
1979-07-03 03:05:31.150 ,7,0,0.,4.8,0.,4.8,0.,4.8,0.,4.8
1979-07-03 03:05:35.950 ,7,0,0.,4.8,0.,4.8,0.,4.8,0.,4.8
1979-07-03 03:05:40.750 ,7,0,0.,4.8,0.,4.8,0.,4.8,0.,4.8
1979-07-03 03:05:45.550 ,7,0,0.,4.8,0.,4.8,0.,4.8,0.,4.8
1979-07-03 03:05:50.350 ,7,0,0.,4.8,0.,4.8,0.,4.8,0.,4.8
1979-07-03 03:05:55.150 ,7,0,0.,4.8,0.,4.8,0.,4.8,0.,4.8
1979-07-03 03:05:59.950 ,7,0,0.,4.8,0.,4.8,0.,4.8,0.,4.8
1979-07-03 03:06:04.750 ,7,0,0.,4.8,0.,4.8,0.,4.8,0.,4.8
1979-07-03 03:06:09.550 ,7,0,0.,4.8,0.,4.8,0.,4.8,0.,4.8
1979-07-03 03:06:14.350 ,7,0,0.,4.8,0.,4.8,0.,4.8,0.,4.8
1979-07-03 03:06:19.150 ,7,0,0.,4.8,0.,4.8,0.,4.8,0.,4.8
1979-07-03 03:06:23.950 ,6,0,1.,4.8,0.,4.8,0.,4.8,0.,4.8
1979-07-03 03:06:28.750 ,6,0,0.,4.8,0.,4.8,0.,4.8,0.,4.8
1979-07-03 03:06:33.550 ,6,0,0.,4.8,0.,4.8,1.,4.8,0.,4.8
1979-07-03 03:06:38.350 ,6,0,0.,4.8,0.,4.8,0.,4.8,0.,4.8
1979-07-03 03:06:43.150 ,6,0,0.,4.8,0.,4.8,0.,4.8,0.,4.8
1979-07-03 03:06:47.950 ,6,0,0.,4.8,0.,4.8,1.,4.8,0.,4.8
1979-07-03 03:06:52.750 ,6,0,0.,4.8,0.,4.8,0.,4.8,0.,4.8
1979-07-03 03:06:57.550 ,6,0,0.,4.8,0.,4.8,0.,4.8,0.,4.8
1979-07-03 03:07:02.350 ,6,0,0.,4.8,0.,4.8,0.,4.8,0.,4.8
1979-07-03 03:07:07.150 ,6,0,0.,4.8,0.,4.8,0.,4.8,0.,4.8
1979-07-03 03:07:11.950 ,5,0,1.,4.8,0.,4.8,0.,4.8,0.,4.8
1979-07-03 03:07:16.750 ,5,0,0.,4.8,1.,4.8,0.,4.8,0.,4.8
1979-07-03 03:07:21.550 ,5,0,3.,4.8,0.,4.8,0.,4.8,0.,4.8
1979-07-03 03:07:26.350 ,5,0,1.,4.8,0.,4.8,1.,4.8,0.,4.8
1979-07-03 03:07:31.150 ,5,0,0.,4.8,0.,4.8,0.,4.8,0.,4.8
1979-07-03 03:07:35.950 ,5,0,1.,4.8,0.,4.8,0.,4.8,0.,4.8
1979-07-03 03:07:40.750 ,5,0,1.,4.8,0.,4.8,0.,4.8,0.,4.8
1979-07-03 03:07:45.550 ,5,0,0.,4.8,0.,4.8,0.,4.8,0.,4.8
1979-07-03 03:07:50.350 ,5,0,1.,4.8,0.,4.8,0.,4.8,0.,4.8
1979-07-03 03:07:55.150 ,5,0,1.,4.8,0.,4.8,0.,4.8,0.,4.8
1979-07-03 03:07:59.950 ,4,0,1.,4.8,0.,4.8,0.,4.8,0.,4.8
1979-07-03 03:08:04.750 ,4,0,1.,4.8,0.,4.8,1.,4.8,0.,4.8
1979-07-03 03:08:09.550 ,4,0,0.,4.8,0.,4.8,0.,4.8,0.,4.8
1979-07-03 03:08:14.350 ,4,0,1.,4.8,0.,4.8,0.,4.8,0.,4.8
1979-07-03 03:08:19.150 ,4,0,0.,4.8,0.,4.8,0.,4.8,0.,4.8
1979-07-03 03:08:23.950 ,4,0,0.,4.8,0.,4.8,0.,4.8,0.,4.8
1979-07-03 03:08:28.750 ,4,0,0.,4.8,0.,4.8,0.,4.8,0.,4.8
1979-07-03 03:08:33.550 ,4,0,0.,4.8,0.,4.8,0.,4.8,0.,4.8
1979-07-03 03:08:38.350 ,4,0,1.,4.8,0.,4.8,0.,4.8,0.,4.8
1979-07-03 03:08:43.150 ,4,0,0.,4.8,0.,4.8,0.,4.8,0.,4.8
1979-07-03 03:08:47.950 ,3,0,0.,4.8,0.,4.8,0.,4.8,0.,4.8
1979-07-03 03:08:52.750 ,3,0,0.,4.8,0.,4.8,0.,4.8,0.,4.8
1979-07-03 03:08:57.550 ,3,0,0.,4.8,0.,4.8,0.,4.8,0.,4.8
1979-07-03 03:09:02.350 ,3,0,1.,4.8,0.,4.8,0.,4.8,0.,4.8
1979-07-03 03:09:07.150 ,3,0,1.,4.8,0.,4.8,0.,4.8,0.,4.8
1979-07-03 03:09:11.950 ,3,0,2.,4.8,0.,4.8,0.,4.8,0.,4.8
1979-07-03 03:09:16.750 ,3,0,0.,4.8,0.,4.8,0.,4.8,0.,4.8
1979-07-03 03:09:21.550 ,3,0,0.,4.8,0.,4.8,0.,4.8,0.,4.8
1979-07-03 03:09:26.350 ,3,0,0.,4.8,0.,4.8,1.,4.8,0.,4.8
1979-07-03 03:09:31.150 ,3,0,0.,4.8,0.,4.8,0.,4.8,0.,4.8
1979-07-03 03:09:35.950 ,2,0,0.,4.8,0.,4.8,0.,4.8,0.,4.8
1979-07-03 03:09:40.750 ,2,0,0.,4.8,0.,4.8,0.,4.8,0.,4.8
1979-07-03 03:09:45.550 ,2,0,0.,4.8,0.,4.8,0.,4.8,0.,4.8
1979-07-03 03:09:50.350 ,2,0,1.,4.8,0.,4.8,0.,4.8,0.,4.8
1979-07-03 03:09:55.150 ,2,0,0.,4.8,0.,4.8,0.,4.8,0.,4.8
1979-07-03 03:09:59.950 ,2,0,0.,4.8,0.,4.8,0.,4.8,0.,4.8
1979-07-03 03:10:04.750 ,2,0,0.,4.8,0.,4.8,0.,4.8,0.,4.8
1979-07-03 03:10:09.550 ,2,0,0.,4.8,0.,4.8,0.,4.8,0.,4.8
1979-07-03 03:10:14.350 ,2,0,1.,4.8,0.,4.8,0.,4.8,0.,4.8
1979-07-03 03:10:19.150 ,2,0,0.,4.8,0.,4.8,1.,4.8,0.,4.8
1979-07-03 03:10:23.940 ,1,0,1.,4.8,0.,4.8,0.,4.8,0.,4.8
1979-07-03 03:10:28.740 ,1,0,0.,4.8,0.,4.8,0.,4.8,0.,4.8
1979-07-03 03:10:33.540 ,1,0,1.,4.8,0.,4.8,0.,4.8,0.,4.8
1979-07-03 03:10:38.340 ,1,0,0.,4.8,0.,4.8,0.,4.8,0.,4.8
1979-07-03 03:10:43.140 ,1,0,0.,4.8,0.,4.8,0.,4.8,0.,4.8
1979-07-03 03:10:47.940 ,1,0,2.,4.8,0.,4.8,0.,4.8,0.,4.8
1979-07-03 03:10:52.740 ,1,0,0.,4.8,0.,4.8,0.,4.8,0.,4.8
1979-07-03 03:10:57.540 ,1,0,0.,4.8,0.,4.8,1.,4.8,0.,4.8
1979-07-03 03:11:02.340 ,1,0,0.,4.8,0.,4.8,0.,4.8,0.,4.8
1979-07-03 03:11:07.140 ,1,0,1.,4.8,0.,4.8,0.,4.8,0.,4.8
1979-07-03 03:11:11.940 ,0,0,0.,4.8,0.,4.8,0.,4.8,0.,4.8
1979-07-03 03:11:16.740 ,0,0,0.,4.8,0.,4.8,0.,4.8,0.,4.8
1979-07-03 03:11:21.540 ,0,0,0.,4.8,0.,4.8,0.,4.8,0.,4.8
1979-07-03 03:11:26.340 ,0,0,2.,4.8,0.,4.8,0.,4.8,0.,4.8
1979-07-03 03:11:31.140 ,0,0,0.,4.8,0.,4.8,0.,4.8,0.,4.8
1979-07-03 03:11:35.940 ,0,0,0.,4.8,0.,4.8,0.,4.8,0.,4.8
1979-07-03 03:11:40.740 ,0,0,0.,4.8,0.,4.8,0.,4.8,0.,4.8
1979-07-03 03:11:45.540 ,0,0,0.,4.8,0.,4.8,0.,4.8,0.,4.8
1979-07-03 03:11:50.340 ,0,0,0.,4.8,0.,4.8,0.,4.8,0.,4.8
1979-07-03 03:11:55.140 ,0,0,0.,4.8,0.,4.8,0.,4.8,0.,4.8
1979-07-03 03:11:59.940 ,0,0,1.,4.8,0.,4.8,0.,4.8,0.,4.8
1979-07-03 03:12:04.740 ,0,0,0.,4.8,0.,4.8,0.,4.8,0.,4.8
1979-07-03 03:12:09.540 ,0,0,1.,4.8,0.,4.8,0.,4.8,0.,4.8
1979-07-03 03:12:14.340 ,0,0,1.,4.8,0.,4.8,0.,4.8,0.,4.8
1979-07-03 03:12:19.140 ,0,0,0.,4.8,0.,4.8,0.,4.8,0.,4.8
1979-07-03 03:12:23.940 ,0,0,1.,4.8,0.,4.8,0.,4.8,0.,4.8
1979-07-03 03:12:28.740 ,0,0,1.,4.8,0.,4.8,0.,4.8,0.,4.8
1979-07-03 03:12:33.540 ,0,0,0.,4.8,0.,4.8,0.,4.8,0.,4.8
1979-07-03 03:12:38.340 ,0,0,0.,4.8,0.,4.8,0.,4.8,0.,4.8
1979-07-03 03:12:43.140 ,0,0,1.,4.8,0.,4.8,0.,4.8,0.,4.8
1979-07-03 03:12:47.940 ,1,0,0.,4.8,1.,4.8,0.,4.8,0.,4.8
1979-07-03 03:12:52.740 ,1,0,0.,4.8,0.,4.8,0.,4.8,0.,4.8
1979-07-03 03:12:57.540 ,1,0,0.,4.8,0.,4.8,0.,4.8,0.,4.8
1979-07-03 03:13:02.340 ,1,0,0.,4.8,1.,4.8,0.,4.8,0.,4.8
1979-07-03 03:13:07.140 ,1,0,0.,4.8,0.,4.8,0.,4.8,0.,4.8
1979-07-03 03:13:11.940 ,1,0,0.,4.8,0.,4.8,0.,4.8,0.,4.8
1979-07-03 03:13:16.740 ,1,0,0.,4.8,1.,4.8,0.,4.8,0.,4.8
1979-07-03 03:13:21.540 ,1,0,0.,4.8,0.,4.8,0.,4.8,0.,4.8
1979-07-03 03:13:26.340 ,1,0,0.,4.8,0.,4.8,0.,4.8,0.,4.8
1979-07-03 03:13:31.140 ,1,0,0.,4.8,0.,4.8,0.,4.8,0.,4.8
1979-07-03 03:13:35.940 ,2,0,0.,4.8,0.,4.8,0.,4.8,0.,4.8
1979-07-03 03:13:40.740 ,2,0,0.,4.8,0.,4.8,0.,4.8,0.,4.8
1979-07-03 03:13:45.540 ,2,0,0.,4.8,0.,4.8,0.,4.8,0.,4.8
1979-07-03 03:13:50.340 ,2,0,1.,4.8,0.,4.8,0.,4.8,0.,4.8
1979-07-03 03:13:55.140 ,2,0,0.,4.8,0.,4.8,0.,4.8,0.,4.8
1979-07-03 03:13:59.940 ,2,0,0.,4.8,0.,4.8,0.,4.8,0.,4.8
1979-07-03 03:14:04.740 ,2,0,0.,4.8,0.,4.8,0.,4.8,0.,4.8
1979-07-03 03:14:09.540 ,2,0,2.,4.8,0.,4.8,0.,4.8,0.,4.8
1979-07-03 03:14:14.340 ,2,0,0.,4.8,0.,4.8,0.,4.8,0.,4.8
1979-07-03 03:14:19.140 ,2,0,0.,4.8,0.,4.8,0.,4.8,0.,4.8
1979-07-03 03:14:23.940 ,3,0,0.,4.8,0.,4.8,0.,4.8,0.,4.8
1979-07-03 03:14:28.740 ,3,0,1.,4.8,0.,4.8,0.,4.8,0.,4.8
1979-07-03 03:14:33.540 ,3,0,1.,4.8,0.,4.8,1.,4.8,0.,4.8
1979-07-03 03:14:38.340 ,3,0,1.,4.8,0.,4.8,0.,4.8,0.,4.8
1979-07-03 03:14:43.140 ,3,0,1.,4.8,0.,4.8,0.,4.8,0.,4.8
1979-07-03 03:14:47.940 ,3,0,0.,4.8,0.,4.8,0.,4.8,0.,4.8
1979-07-03 03:14:52.740 ,3,0,0.,4.8,0.,4.8,0.,4.8,0.,4.8
1979-07-03 03:14:57.540 ,3,0,0.,4.8,0.,4.8,0.,4.8,0.,4.8
1979-07-03 03:15:02.340 ,3,0,0.,4.8,0.,4.8,0.,4.8,0.,4.8
1979-07-03 03:15:07.140 ,3,0,0.,4.8,0.,4.8,0.,4.8,0.,4.8
1979-07-03 03:15:11.940 ,4,0,1.,4.8,0.,4.8,0.,4.8,0.,4.8
1979-07-03 03:15:16.740 ,4,0,0.,4.8,0.,4.8,0.,4.8,0.,4.8
1979-07-03 03:15:21.540 ,4,0,1.,4.8,0.,4.8,0.,4.8,0.,4.8
1979-07-03 03:15:26.340 ,4,0,0.,4.8,0.,4.8,0.,4.8,0.,4.8
1979-07-03 03:15:31.140 ,4,0,0.,4.8,0.,4.8,2.,4.8,0.,4.8
1979-07-03 03:15:35.940 ,4,0,0.,4.8,0.,4.8,0.,4.8,0.,4.8
1979-07-03 03:15:40.740 ,4,0,0.,4.8,0.,4.8,1.,4.8,0.,4.8
1979-07-03 03:15:45.540 ,4,0,1.,4.8,0.,4.8,0.,4.8,1.,4.8
1979-07-03 03:15:50.340 ,4,0,0.,4.8,0.,4.8,0.,4.8,0.,4.8
1979-07-03 03:15:55.140 ,4,0,0.,4.8,0.,4.8,0.,4.8,0.,4.8
1979-07-03 03:15:59.940 ,5,0,0.,4.8,0.,4.8,0.,4.8,0.,4.8
1979-07-03 03:16:04.740 ,5,0,0.,4.8,0.,4.8,0.,4.8,0.,4.8
1979-07-03 03:16:09.540 ,5,0,1.,4.8,0.,4.8,0.,4.8,0.,4.8
1979-07-03 03:16:14.340 ,5,0,1.,4.8,0.,4.8,0.,4.8,0.,4.8
1979-07-03 03:16:19.140 ,5,0,1.,4.8,0.,4.8,1.,4.8,0.,4.8
1979-07-03 03:16:23.940 ,5,0,0.,4.8,0.,4.8,0.,4.8,0.,4.8
1979-07-03 03:16:28.740 ,5,0,0.,4.8,0.,4.8,0.,4.8,0.,4.8
1979-07-03 03:16:33.540 ,5,0,0.,4.8,0.,4.8,0.,4.8,0.,4.8
1979-07-03 03:16:38.340 ,5,0,0.,4.8,0.,4.8,1.,4.8,0.,4.8
1979-07-03 03:16:43.140 ,5,0,1.,4.8,0.,4.8,1.,4.8,0.,4.8
1979-07-03 03:16:47.940 ,6,0,0.,4.8,1.,4.8,0.,4.8,0.,4.8
1979-07-03 03:16:52.740 ,6,0,0.,4.8,0.,4.8,0.,4.8,0.,4.8
1979-07-03 03:16:57.540 ,6,0,0.,4.8,0.,4.8,0.,4.8,0.,4.8
1979-07-03 03:17:02.340 ,6,0,0.,4.8,0.,4.8,0.,4.8,0.,4.8
1979-07-03 03:17:07.150 ,6,0,0.,4.8,0.,4.8,0.,4.8,0.,4.8
1979-07-03 03:17:11.940 ,6,0,1.,4.8,0.,4.8,0.,4.8,0.,4.8
1979-07-03 03:17:16.740 ,6,0,0.,4.8,0.,4.8,1.,4.8,0.,4.8
1979-07-03 03:17:21.540 ,6,0,0.,4.8,0.,4.8,0.,4.8,0.,4.8
1979-07-03 03:17:26.340 ,6,0,0.,4.8,0.,4.8,0.,4.8,0.,4.8
1979-07-03 03:17:31.150 ,6,0,0.,4.8,0.,4.8,0.,4.8,0.,4.8
1979-07-03 03:17:35.940 ,7,0,2.,4.8,0.,4.8,0.,4.8,0.,4.8
1979-07-03 03:17:40.740 ,7,0,0.,4.8,0.,4.8,1.,4.8,0.,4.8
1979-07-03 03:17:45.540 ,7,0,0.,4.8,0.,4.8,0.,4.8,0.,4.8
1979-07-03 03:17:50.340 ,7,0,0.,4.8,0.,4.8,0.,4.8,0.,4.8
1979-07-03 03:17:55.150 ,7,0,0.,4.8,0.,4.8,0.,4.8,0.,4.8
1979-07-03 03:17:59.940 ,7,0,1.,4.8,0.,4.8,0.,4.8,0.,4.8
1979-07-03 03:18:04.740 ,7,0,0.,4.8,0.,4.8,0.,4.8,0.,4.8
1979-07-03 03:18:09.540 ,7,0,1.,4.8,0.,4.8,0.,4.8,0.,4.8
1979-07-03 03:18:14.340 ,7,0,0.,4.8,0.,4.8,0.,4.8,0.,4.8
1979-07-03 03:18:19.150 ,7,0,1.,4.8,0.,4.8,0.,4.8,0.,4.8
1979-07-03 03:18:23.940 ,7,0,0.,4.8,0.,4.8,0.,4.8,0.,4.8
1979-07-03 03:18:28.740 ,7,0,1.,4.8,0.,4.8,0.,4.8,0.,4.8
1979-07-03 03:18:33.540 ,7,0,0.,4.8,0.,4.8,0.,4.8,0.,4.8
1979-07-03 03:18:38.340 ,7,0,0.,4.8,0.,4.8,0.,4.8,0.,4.8
1979-07-03 03:18:43.150 ,7,0,0.,4.8,0.,4.8,0.,4.8,0.,4.8
1979-07-03 03:18:47.940 ,7,0,0.,4.8,0.,4.8,0.,4.8,0.,4.8
1979-07-03 03:18:52.740 ,7,0,1.,4.8,0.,4.8,0.,4.8,0.,4.8
1979-07-03 03:18:57.540 ,7,0,0.,4.8,0.,4.8,0.,4.8,0.,4.8
1979-07-03 03:19:02.340 ,7,0,1.,4.8,0.,4.8,0.,4.8,0.,4.8
1979-07-03 03:19:07.150 ,7,0,0.,4.8,0.,4.8,0.,4.8,0.,4.8
1979-07-03 03:19:11.940 ,6,0,0.,4.8,0.,4.8,0.,4.8,0.,4.8
1979-07-03 03:19:16.740 ,6,0,0.,4.8,0.,4.8,0.,4.8,0.,4.8
1979-07-03 03:19:21.540 ,6,0,0.,4.8,0.,4.8,1.,4.8,0.,4.8
1979-07-03 03:19:26.340 ,6,0,0.,4.8,0.,4.8,0.,4.8,0.,4.8
1979-07-03 03:19:31.150 ,6,0,1.,4.8,0.,4.8,0.,4.8,0.,4.8
1979-07-03 03:19:35.940 ,6,0,0.,4.8,1.,4.8,0.,4.8,0.,4.8
1979-07-03 03:19:40.740 ,6,0,0.,4.8,0.,4.8,0.,4.8,0.,4.8
1979-07-03 03:19:45.540 ,6,0,0.,4.8,0.,4.8,0.,4.8,0.,4.8
1979-07-03 03:19:50.340 ,6,0,1.,4.8,0.,4.8,0.,4.8,0.,4.8
1979-07-03 03:19:55.150 ,6,0,0.,4.8,0.,4.8,0.,4.8,0.,4.8
1979-07-03 03:19:59.940 ,5,0,0.,4.8,0.,4.8,0.,4.8,0.,4.8
1979-07-03 03:20:04.740 ,5,0,0.,4.8,0.,4.8,0.,4.8,0.,4.8
1979-07-03 03:20:09.540 ,5,0,0.,4.8,1.,4.8,0.,4.8,0.,4.8
1979-07-03 03:20:14.340 ,5,0,0.,4.8,0.,4.8,0.,4.8,0.,4.8
1979-07-03 03:20:19.150 ,5,0,0.,4.8,0.,4.8,0.,4.8,0.,4.8
1979-07-03 03:20:23.940 ,5,0,0.,4.8,1.,4.8,0.,4.8,0.,4.8
1979-07-03 03:20:28.740 ,5,0,0.,4.8,0.,4.8,0.,4.8,0.,4.8
1979-07-03 03:20:33.540 ,5,0,0.,4.8,0.,4.8,0.,4.8,0.,4.8
1979-07-03 03:20:38.340 ,5,0,0.,4.8,0.,4.8,1.,4.8,0.,4.8
1979-07-03 03:20:43.150 ,5,0,0.,4.8,0.,4.8,0.,4.8,0.,4.8
1979-07-03 03:20:47.940 ,4,0,0.,4.8,0.,4.8,0.,4.8,0.,4.8
1979-07-03 03:20:52.740 ,4,0,0.,4.8,0.,4.8,0.,4.8,0.,4.8
1979-07-03 03:20:57.540 ,4,0,0.,4.8,0.,4.8,0.,4.8,0.,4.8
1979-07-03 03:21:02.340 ,4,0,1.,4.8,0.,4.8,0.,4.8,0.,4.8
1979-07-03 03:21:07.150 ,4,0,1.,4.8,0.,4.8,0.,4.8,0.,4.8
1979-07-03 03:21:11.940 ,4,0,1.,4.8,0.,4.8,0.,4.8,0.,4.8
1979-07-03 03:21:16.740 ,4,0,0.,4.8,0.,4.8,1.,4.8,0.,4.8
1979-07-03 03:21:21.540 ,4,0,0.,4.8,0.,4.8,0.,4.8,0.,4.8
1979-07-03 03:21:26.340 ,4,0,0.,4.8,0.,4.8,0.,4.8,0.,4.8
1979-07-03 03:21:31.150 ,4,0,0.,4.8,0.,4.8,0.,4.8,0.,4.8
1979-07-03 03:21:35.940 ,3,0,0.,4.8,0.,4.8,1.,4.8,0.,4.8
1979-07-03 03:21:40.740 ,3,0,1.,4.8,0.,4.8,0.,4.8,0.,4.8
1979-07-03 03:21:45.540 ,3,0,1.,4.8,0.,4.8,0.,4.8,0.,4.8
1979-07-03 03:21:50.340 ,3,0,1.,4.8,0.,4.8,0.,4.8,0.,4.8
1979-07-03 03:21:55.150 ,3,0,0.,4.8,0.,4.8,0.,4.8,0.,4.8
1979-07-03 03:21:59.940 ,3,0,2.,4.8,0.,4.8,0.,4.8,0.,4.8
1979-07-03 03:22:04.740 ,3,0,0.,4.8,0.,4.8,0.,4.8,0.,4.8
1979-07-03 03:22:09.540 ,3,0,1.,4.8,0.,4.8,0.,4.8,0.,4.8
1979-07-03 03:22:14.340 ,3,0,0.,4.8,0.,4.8,0.,4.8,0.,4.8
1979-07-03 03:22:19.150 ,3,0,0.,4.8,0.,4.8,0.,4.8,0.,4.8
1979-07-03 03:22:23.940 ,2,0,0.,4.8,0.,4.8,0.,4.8,0.,4.8
1979-07-03 03:22:28.740 ,2,0,0.,4.8,0.,4.8,1.,4.8,0.,4.8
1979-07-03 03:22:33.540 ,2,0,0.,4.8,0.,4.8,1.,4.8,0.,4.8
1979-07-03 03:22:38.340 ,2,0,0.,4.8,0.,4.8,0.,4.8,0.,4.8
1979-07-03 03:22:43.150 ,2,0,0.,4.8,0.,4.8,0.,4.8,0.,4.8
1979-07-03 03:22:47.940 ,2,0,0.,4.8,0.,4.8,0.,4.8,0.,4.8
1979-07-03 03:22:52.740 ,2,0,0.,4.8,0.,4.8,0.,4.8,0.,4.8
1979-07-03 03:22:57.540 ,2,0,0.,4.8,0.,4.8,0.,4.8,0.,4.8
1979-07-03 03:23:02.340 ,2,0,0.,4.8,0.,4.8,0.,4.8,0.,4.8
1979-07-03 03:23:07.150 ,2,0,0.,4.8,0.,4.8,0.,4.8,0.,4.8
1979-07-03 03:23:11.940 ,1,0,0.,4.8,0.,4.8,0.,4.8,0.,4.8
1979-07-03 03:23:16.740 ,1,0,0.,4.8,0.,4.8,0.,4.8,0.,4.8
1979-07-03 03:23:21.540 ,1,0,0.,4.8,0.,4.8,0.,4.8,0.,4.8
1979-07-03 03:23:26.340 ,1,0,1.,4.8,0.,4.8,0.,4.8,0.,4.8
1979-07-03 03:23:31.150 ,1,0,0.,4.8,0.,4.8,0.,4.8,0.,4.8
1979-07-03 03:23:35.940 ,1,0,0.,4.8,0.,4.8,0.,4.8,0.,4.8
1979-07-03 03:23:40.740 ,1,0,0.,4.8,0.,4.8,0.,4.8,0.,4.8
1979-07-03 03:23:45.540 ,1,0,0.,4.8,0.,4.8,1.,4.8,0.,4.8
1979-07-03 03:23:50.340 ,1,0,1.,4.8,0.,4.8,0.,4.8,0.,4.8
1979-07-03 03:23:55.150 ,1,0,0.,4.8,0.,4.8,0.,4.8,0.,4.8
1979-07-03 03:23:59.940 ,0,0,0.,4.8,0.,4.8,0.,4.8,0.,4.8
1979-07-03 03:24:04.740 ,0,0,0.,4.8,0.,4.8,0.,4.8,0.,4.8
1979-07-03 03:24:09.540 ,0,0,0.,4.8,0.,4.8,0.,4.8,0.,4.8
1979-07-03 03:24:14.340 ,0,0,1.,4.8,0.,4.8,0.,4.8,0.,4.8
1979-07-03 03:24:19.150 ,0,0,1.,4.8,0.,4.8,0.,4.8,0.,4.8
1979-07-03 03:24:23.940 ,0,0,0.,4.8,0.,4.8,0.,4.8,1.,4.8
1979-07-03 03:24:28.740 ,0,0,0.,4.8,0.,4.8,0.,4.8,0.,4.8
1979-07-03 03:24:33.540 ,0,0,0.,4.8,0.,4.8,0.,4.8,0.,4.8
1979-07-03 03:24:38.340 ,0,0,0.,4.8,0.,4.8,0.,4.8,0.,4.8
1979-07-03 03:24:43.150 ,0,0,0.,4.8,0.,4.8,1.,4.8,0.,4.8
1979-07-03 03:24:47.940 ,0,0,0.,4.8,0.,4.8,0.,4.8,0.,4.8
1979-07-03 03:24:52.740 ,0,0,0.,4.8,0.,4.8,0.,4.8,0.,4.8
1979-07-03 03:24:57.540 ,0,0,0.,4.8,0.,4.8,1.,4.8,0.,4.8
1979-07-03 03:25:02.340 ,0,0,0.,4.8,0.,4.8,0.,4.8,0.,4.8
1979-07-03 03:25:07.150 ,0,0,2.,4.8,0.,4.8,0.,4.8,0.,4.8
1979-07-03 03:25:11.940 ,0,0,0.,4.8,0.,4.8,0.,4.8,0.,4.8
1979-07-03 03:25:16.740 ,0,0,0.,4.8,0.,4.8,0.,4.8,0.,4.8
1979-07-03 03:25:21.540 ,0,0,0.,4.8,0.,4.8,0.,4.8,0.,4.8
1979-07-03 03:25:26.340 ,0,0,0.,4.8,0.,4.8,1.,4.8,0.,4.8
1979-07-03 03:25:31.150 ,0,0,2.,4.8,0.,4.8,0.,4.8,0.,4.8
1979-07-03 03:25:35.940 ,1,0,0.,4.8,0.,4.8,0.,4.8,0.,4.8
1979-07-03 03:25:40.740 ,1,0,0.,4.8,0.,4.8,0.,4.8,0.,4.8
1979-07-03 03:25:45.540 ,1,0,0.,4.8,0.,4.8,0.,4.8,0.,4.8
1979-07-03 03:25:50.340 ,1,0,0.,4.8,0.,4.8,0.,4.8,0.,4.8
1979-07-03 03:25:55.150 ,1,0,1.,4.8,0.,4.8,0.,4.8,0.,4.8
1979-07-03 03:25:59.940 ,1,0,1.,4.8,0.,4.8,0.,4.8,0.,4.8
1979-07-03 03:26:04.740 ,1,0,0.,4.8,0.,4.8,0.,4.8,0.,4.8
1979-07-03 03:26:09.540 ,1,0,0.,4.8,0.,4.8,0.,4.8,0.,4.8
1979-07-03 03:26:14.340 ,1,0,0.,4.8,0.,4.8,0.,4.8,0.,4.8
1979-07-03 03:26:19.150 ,1,0,1.,4.8,0.,4.8,0.,4.8,0.,4.8
1979-07-03 03:26:23.940 ,2,0,1.,4.8,0.,4.8,0.,4.8,0.,4.8
1979-07-03 03:26:28.740 ,2,0,0.,4.8,0.,4.8,0.,4.8,0.,4.8
1979-07-03 03:26:33.540 ,2,0,0.,4.8,0.,4.8,0.,4.8,0.,4.8
1979-07-03 03:26:38.340 ,2,0,1.,4.8,0.,4.8,0.,4.8,0.,4.8
1979-07-03 03:26:43.150 ,2,0,1.,4.8,0.,4.8,1.,4.8,0.,4.8
1979-07-03 03:26:47.940 ,2,0,1.,4.8,0.,4.8,0.,4.8,0.,4.8
1979-07-03 03:26:52.740 ,2,0,1.,4.8,0.,4.8,0.,4.8,0.,4.8
1979-07-03 03:26:57.540 ,2,0,0.,4.8,0.,4.8,0.,4.8,0.,4.8
1979-07-03 03:27:02.340 ,2,0,0.,4.8,0.,4.8,0.,4.8,0.,4.8
1979-07-03 03:27:07.150 ,2,0,0.,4.8,0.,4.8,0.,4.8,0.,4.8
1979-07-03 03:27:11.940 ,3,0,0.,4.8,0.,4.8,0.,4.8,0.,4.8
1979-07-03 03:27:16.740 ,3,0,1.,4.8,0.,4.8,1.,4.8,0.,4.8
1979-07-03 03:27:21.540 ,3,0,0.,4.8,0.,4.8,0.,4.8,0.,4.8
1979-07-03 03:27:26.340 ,3,0,0.,4.8,0.,4.8,0.,4.8,0.,4.8
1979-07-03 03:27:31.150 ,3,0,0.,4.8,0.,4.8,0.,4.8,0.,4.8
1979-07-03 03:27:35.940 ,3,0,1.,4.8,0.,4.8,0.,4.8,0.,4.8
1979-07-03 03:27:40.740 ,3,0,0.,4.8,0.,4.8,0.,4.8,0.,4.8
1979-07-03 03:27:45.540 ,3,0,1.,4.8,0.,4.8,0.,4.8,0.,4.8
1979-07-03 03:27:50.340 ,3,0,0.,4.8,0.,4.8,0.,4.8,0.,4.8
1979-07-03 03:27:55.150 ,3,0,0.,4.8,0.,4.8,0.,4.8,0.,4.8
1979-07-03 03:27:59.940 ,4,0,0.,4.8,0.,4.8,0.,4.8,0.,4.8
1979-07-03 03:28:04.740 ,4,0,0.,4.8,0.,4.8,0.,4.8,0.,4.8
1979-07-03 03:28:09.540 ,4,0,1.,4.8,0.,4.8,0.,4.8,0.,4.8
1979-07-03 03:28:14.340 ,4,0,0.,4.8,1.,4.8,0.,4.8,0.,4.8
1979-07-03 03:28:19.150 ,4,0,0.,4.8,0.,4.8,0.,4.8,0.,4.8
1979-07-03 03:28:23.940 ,4,0,0.,4.8,0.,4.8,0.,4.8,0.,4.8
1979-07-03 03:28:28.740 ,4,0,0.,4.8,0.,4.8,0.,4.8,0.,4.8
1979-07-03 03:28:33.540 ,4,0,0.,4.8,0.,4.8,0.,4.8,0.,4.8
1979-07-03 03:28:38.340 ,4,0,0.,4.8,0.,4.8,0.,4.8,0.,4.8
1979-07-03 03:28:43.150 ,4,0,1.,4.8,0.,4.8,0.,4.8,0.,4.8
1979-07-03 03:28:47.940 ,5,0,0.,4.8,0.,4.8,0.,4.8,0.,4.8
1979-07-03 03:28:52.740 ,5,0,0.,4.8,0.,4.8,1.,4.8,0.,4.8
1979-07-03 03:28:57.540 ,5,0,1.,4.8,0.,4.8,0.,4.8,0.,4.8
1979-07-03 03:29:02.340 ,5,0,0.,4.8,0.,4.8,0.,4.8,0.,4.8
1979-07-03 03:29:07.150 ,5,0,0.,4.8,0.,4.8,0.,4.8,1.,4.8
1979-07-03 03:29:11.940 ,5,0,0.,4.8,0.,4.8,0.,4.8,0.,4.8
1979-07-03 03:29:16.740 ,5,0,0.,4.8,0.,4.8,0.,4.8,0.,4.8
1979-07-03 03:29:21.540 ,5,0,1.,4.8,0.,4.8,0.,4.8,0.,4.8
1979-07-03 03:29:26.340 ,5,0,0.,4.8,0.,4.8,0.,4.8,0.,4.8
1979-07-03 03:29:31.150 ,5,0,0.,4.8,0.,4.8,0.,4.8,0.,4.8
1979-07-03 03:29:35.940 ,6,0,0.,4.8,0.,4.8,0.,4.8,0.,4.8
1979-07-03 03:29:40.740 ,6,0,0.,4.8,0.,4.8,0.,4.8,0.,4.8
1979-07-03 03:29:45.540 ,6,0,1.,4.8,0.,4.8,1.,4.8,0.,4.8
1979-07-03 03:29:50.340 ,6,0,0.,4.8,0.,4.8,1.,4.8,0.,4.8
1979-07-03 03:29:55.150 ,6,0,0.,4.8,0.,4.8,0.,4.8,0.,4.8
1979-07-03 03:29:59.940 ,6,0,1.,4.8,0.,4.8,0.,4.8,0.,4.8
1979-07-03 03:30:04.740 ,6,0,0.,4.8,0.,4.8,0.,4.8,0.,4.8
1979-07-03 03:30:09.540 ,6,0,0.,4.8,0.,4.8,0.,4.8,0.,4.8
1979-07-03 03:30:14.340 ,6,0,0.,4.8,0.,4.8,0.,4.8,0.,4.8
1979-07-03 03:30:19.150 ,6,0,0.,4.8,0.,4.8,0.,4.8,0.,4.8
1979-07-03 03:30:23.940 ,7,0,0.,4.8,0.,4.8,0.,4.8,0.,4.8
1979-07-03 03:30:28.740 ,7,0,0.,4.8,0.,4.8,0.,4.8,0.,4.8
1979-07-03 03:30:33.540 ,7,0,0.,4.8,0.,4.8,0.,4.8,0.,4.8
1979-07-03 03:30:38.340 ,7,0,1.,4.8,0.,4.8,0.,4.8,0.,4.8
1979-07-03 03:30:43.140 ,7,0,0.,4.8,0.,4.8,0.,4.8,0.,4.8
1979-07-03 03:30:47.940 ,7,0,1.,4.8,0.,4.8,1.,4.8,0.,4.8
1979-07-03 03:30:52.740 ,7,0,1.,4.8,0.,4.8,0.,4.8,0.,4.8
1979-07-03 03:30:57.540 ,7,0,1.,4.8,0.,4.8,0.,4.8,0.,4.8
1979-07-03 03:31:02.340 ,7,0,1.,4.8,0.,4.8,0.,4.8,0.,4.8
1979-07-03 03:31:07.140 ,7,0,0.,4.8,0.,4.8,0.,4.8,0.,4.8
1979-07-03 03:31:11.940 ,3,1,0.,4.8,0.,4.8,1.,4.8,0.,4.8
1979-07-03 03:31:16.740 ,3,1,0.,4.8,0.,4.8,0.,4.8,0.,4.8
1979-07-03 03:31:21.540 ,3,1,0.,4.8,0.,4.8,0.,4.8,0.,4.8
1979-07-03 03:31:26.340 ,3,1,1.,4.8,0.,4.8,0.,4.8,0.,4.8
1979-07-03 03:31:31.140 ,3,1,0.,4.8,1.,4.8,0.,4.8,0.,4.8
1979-07-03 03:31:35.940 ,0,1,2.,4.8,0.,4.8,0.,4.8,0.,4.8
1979-07-03 03:31:40.740 ,0,1,1.,4.8,0.,4.8,0.,4.8,0.,4.8
1979-07-03 03:31:45.540 ,0,1,1.,4.8,0.,4.8,0.,4.8,0.,4.8
1979-07-03 03:31:50.340 ,0,1,0.,4.8,0.,4.8,0.,4.8,0.,4.8
1979-07-03 03:31:55.140 ,0,1,0.,4.8,0.,4.8,0.,4.8,0.,4.8
1979-07-03 03:31:59.940 ,4,1,0.,4.8,0.,4.8,0.,4.8,0.,4.8
1979-07-03 03:32:04.740 ,4,1,0.,4.8,0.,4.8,0.,4.8,0.,4.8
1979-07-03 03:32:09.540 ,4,1,0.,4.8,0.,4.8,0.,4.8,0.,4.8
1979-07-03 03:32:14.340 ,4,1,0.,4.8,0.,4.8,0.,4.8,0.,4.8
1979-07-03 03:32:19.140 ,4,1,0.,4.8,0.,4.8,0.,4.8,0.,4.8
1979-07-03 03:32:23.940 ,7,1,1.,4.8,0.,4.8,0.,4.8,0.,4.8
1979-07-03 03:32:28.740 ,7,1,0.,4.8,0.,4.8,0.,4.8,0.,4.8
1979-07-03 03:32:33.540 ,7,1,2.,4.8,0.,4.8,0.,4.8,0.,4.8
1979-07-03 03:32:38.340 ,7,1,1.,4.8,0.,4.8,0.,4.8,0.,4.8
1979-07-03 03:32:43.140 ,7,1,0.,4.8,0.,4.8,0.,4.8,0.,4.8
1979-07-03 03:32:47.940 ,3,1,1.,4.8,0.,4.8,0.,4.8,0.,4.8
1979-07-03 03:32:52.740 ,3,1,1.,4.8,0.,4.8,0.,4.8,0.,4.8
1979-07-03 03:32:57.540 ,3,1,1.,4.8,0.,4.8,0.,4.8,0.,4.8
1979-07-03 03:33:02.340 ,3,1,1.,4.8,0.,4.8,0.,4.8,0.,4.8
1979-07-03 03:33:07.140 ,3,1,1.,4.8,0.,4.8,0.,4.8,0.,4.8
1979-07-03 03:33:11.940 ,0,1,1.,4.8,0.,4.8,0.,4.8,0.,4.8
1979-07-03 03:33:16.740 ,0,1,1.,4.8,0.,4.8,1.,4.8,0.,4.8